Time,TemperatureF,DewpointF,PressureIn,WindDirection,WindDirectionDegrees,WindSpeedMPH,WindSpeedGustMPH,Humidity,HourlyPrecipIn,Conditions,Clouds,dailyrainin,SoftwareType,DateUTC
2013-08-23 00:13:00,70.8,69.0,30.04,NNW,344,0.0,0.0,93,0.00,,,0.00,weatherlink.com 1.10,2013-08-23 04:13:00,
2013-08-23 00:28:00,70.3,69.0,30.05,NNW,344,0.0,0.0,94,0.00,,,0.00,weatherlink.com 1.10,2013-08-23 04:28:00,
2013-08-23 00:43:00,70.0,69.0,30.05,NNW,345,0.0,0.0,95,0.00,,,0.00,weatherlink.com 1.10,2013-08-23 04:43:00,
2013-08-23 00:58:00,69.7,69.0,30.05,NNW,344,0.0,0.0,96,0.00,,,0.00,weatherlink.com 1.10,2013-08-23 04:58:00,
2013-08-23 01:13:00,69.4,68.0,30.06,NNW,344,0.0,0.0,96,0.00,,,0.00,weatherlink.com 1.10,2013-08-23 05:13:00,
2013-08-23 01:28:00,69.4,68.0,30.06,NNW,344,0.0,0.0,96,0.00,,,0.00,weatherlink.com 1.10,2013-08-23 05:28:00,
2013-08-23 01:43:00,69.5,68.0,30.05,NNW,344,0.0,0.0,96,0.00,,,0.00,weatherlink.com 1.10,2013-08-23 05:43:00,
2013-08-23 01:58:00,69.7,69.0,30.05,NW,309,1.0,1.0,97,0.00,,,0.00,weatherlink.com 1.10,2013-08-23 05:58:00,
2013-08-23 02:13:00,70.3,69.0,30.05,WNW,300,0.0,0.0,96,0.00,,,0.00,weatherlink.com 1.10,2013-08-23 06:13:00,
2013-08-23 02:28:00,70.3,69.0,30.04,WNW,299,0.0,0.0,96,0.00,,,0.00,weatherlink.com 1.10,2013-08-23 06:28:00,
2013-08-23 02:43:00,70.5,69.0,30.04,WNW,301,0.0,0.0,96,0.00,,,0.00,weatherlink.com 1.10,2013-08-23 06:43:00,
2013-08-23 02:58:00,70.8,69.0,30.04,North,8,3.0,8.0,93,0.00,,,0.00,weatherlink.com 1.10,2013-08-23 06:58:00,
2013-08-23 03:13:00,70.9,69.0,30.03,NW,318,1.0,5.0,93,0.00,,,0.00,weatherlink.com 1.10,2013-08-23 07:13:00,
2013-08-23 03:28:00,70.9,69.0,30.04,ESE,103,0.0,2.0,93,0.00,,,0.00,weatherlink.com 1.10,2013-08-23 07:28:00,
2013-08-23 03:43:00,70.8,69.0,30.04,NW,322,2.0,3.0,93,0.00,,,0.00,weatherlink.com 1.10,2013-08-23 07:43:00,
2013-08-23 03:58:00,70.6,69.0,30.04,North,360,2.0,5.0,93,0.00,,,0.00,weatherlink.com 1.10,2013-08-23 07:58:00,
2013-08-23 04:13:00,70.5,68.0,30.04,NNW,331,0.0,4.0,93,0.00,,,0.00,weatherlink.com 1.10,2013-08-23 08:13:00,
2013-08-23 04:28:00,70.2,69.0,30.05,West,281,1.0,3.0,94,0.02,,,0.02,weatherlink.com 1.10,2013-08-23 08:28:00,
2013-08-23 04:44:00,69.6,68.0,30.04,NW,306,0.0,4.0,95,0.03,,,0.03,weatherlink.com 1.10,2013-08-23 08:44:00,
2013-08-23 04:59:00,69.3,68.0,30.04,WNW,290,0.0,2.0,95,0.03,,,0.03,weatherlink.com 1.10,2013-08-23 08:59:00,
2013-08-23 05:14:00,69.0,68.0,30.04,NNW,343,2.0,4.0,96,0.03,,,0.03,weatherlink.com 1.10,2013-08-23 09:14:00,
2013-08-23 05:29:00,68.7,68.0,30.04,NNW,345,0.0,5.0,96,0.01,,,0.03,weatherlink.com 1.10,2013-08-23 09:29:00,
2013-08-23 05:44:00,68.6,68.0,30.04,North,352,2.0,5.0,96,0.00,,,0.03,weatherlink.com 1.10,2013-08-23 09:44:00,
2013-08-23 05:59:00,68.4,67.0,30.04,NW,321,2.0,6.0,96,0.00,,,0.03,weatherlink.com 1.10,2013-08-23 09:59:00,
2013-08-23 06:14:00,68.3,68.0,30.04,North,355,2.0,3.0,97,0.00,,,0.03,weatherlink.com 1.10,2013-08-23 10:14:00,
2013-08-23 06:29:00,68.1,67.0,30.05,WNW,290,0.0,2.0,97,0.00,,,0.03,weatherlink.com 1.10,2013-08-23 10:29:00,
2013-08-23 06:44:00,67.6,67.0,30.05,SW,232,0.0,1.0,97,0.00,,,0.03,weatherlink.com 1.10,2013-08-23 10:44:00,
2013-08-23 06:59:00,67.1,66.0,30.05,SW,232,0.0,0.0,97,0.00,,,0.03,weatherlink.com 1.10,2013-08-23 10:59:00,
2013-08-23 07:14:00,66.8,66.0,30.06,SW,232,0.0,0.0,97,0.00,,,0.03,weatherlink.com 1.10,2013-08-23 11:14:00,
2013-08-23 07:29:00,66.6,66.0,30.06,SW,232,0.0,0.0,98,0.00,,,0.03,weatherlink.com 1.10,2013-08-23 11:29:00,
2013-08-23 07:44:00,66.7,66.0,30.06,SW,232,0.0,0.0,98,0.00,,,0.03,weatherlink.com 1.10,2013-08-23 11:44:00,
2013-08-23 07:59:00,68.0,68.0,30.06,SW,232,0.0,0.0,99,0.00,,,0.03,weatherlink.com 1.10,2013-08-23 11:59:00,
2013-08-23 08:14:00,68.5,68.0,30.07,North,356,0.0,3.0,98,0.00,,,0.03,weatherlink.com 1.10,2013-08-23 12:14:00,
2013-08-23 08:29:00,68.6,68.0,30.07,NNE,13,1.0,5.0,97,0.00,,,0.03,weatherlink.com 1.10,2013-08-23 12:29:00,
2013-08-23 08:44:00,68.5,68.0,30.08,NNW,343,0.0,4.0,97,0.00,,,0.03,weatherlink.com 1.10,2013-08-23 12:44:00,
2013-08-23 08:59:00,68.4,67.0,30.08,NW,314,0.0,6.0,96,0.00,,,0.03,weatherlink.com 1.10,2013-08-23 12:59:00,
2013-08-23 09:14:00,68.0,67.0,30.09,NNE,27,0.0,10.0,96,0.00,,,0.03,weatherlink.com 1.10,2013-08-23 13:14:00,
2013-08-23 09:29:00,68.0,67.0,30.09,NNW,338,1.0,5.0,96,0.00,,,0.03,weatherlink.com 1.10,2013-08-23 13:29:00,
2013-08-23 09:44:00,68.0,67.0,30.09,North,351,1.0,2.0,97,0.00,,,0.03,weatherlink.com 1.10,2013-08-23 13:44:00,
2013-08-23 09:59:00,68.1,67.0,30.09,NW,309,1.0,4.0,97,0.00,,,0.03,weatherlink.com 1.10,2013-08-23 13:59:00,
2013-08-23 10:14:00,68.5,68.0,30.09,NW,320,0.0,3.0,97,0.00,,,0.03,weatherlink.com 1.10,2013-08-23 14:14:00,
2013-08-23 10:29:00,69.0,68.0,30.09,ENE,75,0.0,3.0,97,0.00,,,0.03,weatherlink.com 1.10,2013-08-23 14:29:00,
2013-08-23 10:44:00,69.5,68.0,30.10,North,9,3.0,3.0,96,0.00,,,0.03,weatherlink.com 1.10,2013-08-23 14:44:00,
2013-08-23 10:59:00,70.4,69.0,30.11,NE,54,0.0,4.0,95,0.00,,,0.03,weatherlink.com 1.10,2013-08-23 14:59:00,
2013-08-23 11:14:00,71.9,69.0,30.11,SE,127,0.0,3.0,91,0.00,,,0.03,weatherlink.com 1.10,2013-08-23 15:14:00,
2013-08-23 11:29:00,73.0,69.0,30.10,SE,124,0.0,1.0,87,0.00,,,0.03,weatherlink.com 1.10,2013-08-23 15:29:00,
2013-08-23 11:44:00,73.7,69.0,30.10,SE,124,0.0,1.0,86,0.00,,,0.03,weatherlink.com 1.10,2013-08-23 15:44:00,
2013-08-23 11:59:00,74.9,69.0,30.10,West,280,0.0,4.0,83,0.00,,,0.03,weatherlink.com 1.10,2013-08-23 15:59:00,
2013-08-23 12:14:00,75.1,69.0,30.10,NW,305,0.0,4.0,82,0.00,,,0.03,weatherlink.com 1.10,2013-08-23 16:14:00,
2013-08-23 12:29:00,76.8,71.0,30.10,South,171,0.0,3.0,81,0.00,,,0.03,weatherlink.com 1.10,2013-08-23 16:29:00,
2013-08-23 12:44:00,79.0,70.0,30.10,NW,309,1.0,4.0,75,0.00,,,0.03,weatherlink.com 1.10,2013-08-23 16:44:00,
2013-08-23 13:00:00,79.8,72.0,30.09,SSW,200,0.0,5.0,76,0.00,,,0.03,weatherlink.com 1.10,2013-08-23 17:00:00,
2013-08-23 13:30:00,80.7,71.0,30.09,WNW,300,1.0,3.0,71,0.00,,,0.03,weatherlink.com 1.10,2013-08-23 17:30:00,
2013-08-23 13:45:00,81.5,69.0,30.09,NNW,331,0.0,4.0,66,0.00,,,0.03,weatherlink.com 1.10,2013-08-23 17:45:00,
2013-08-23 14:00:00,82.3,70.0,30.09,NW,312,4.0,6.0,67,0.00,,,0.03,weatherlink.com 1.10,2013-08-23 18:00:00,
2013-08-23 14:15:00,82.5,70.0,30.08,East,88,2.0,2.0,66,0.00,,,0.03,weatherlink.com 1.10,2013-08-23 18:15:00,
2013-08-23 14:30:00,83.6,71.0,30.08,North,352,3.0,5.0,65,0.00,,,0.03,weatherlink.com 1.10,2013-08-23 18:30:00,
2013-08-23 14:45:00,83.2,70.0,30.08,SW,219,0.0,5.0,64,0.00,,,0.03,weatherlink.com 1.10,2013-08-23 18:45:00,
2013-08-23 15:00:00,84.4,70.0,30.07,WNW,302,2.0,8.0,62,0.00,,,0.03,weatherlink.com 1.10,2013-08-23 19:00:00,
2013-08-23 15:15:00,84.8,70.0,30.07,South,179,1.0,5.0,62,0.00,,,0.03,weatherlink.com 1.10,2013-08-23 19:15:00,
2013-08-23 15:30:00,84.6,69.0,30.06,ENE,74,3.0,5.0,60,0.00,,,0.03,weatherlink.com 1.10,2013-08-23 19:30:00,
2013-08-23 15:45:00,85.9,69.0,30.06,NW,321,6.0,9.0,58,0.00,,,0.03,weatherlink.com 1.10,2013-08-23 19:45:00,
2013-08-23 16:00:00,84.7,69.0,30.06,WNW,303,3.0,7.0,59,0.00,,,0.03,weatherlink.com 1.10,2013-08-23 20:00:00,
2013-08-23 16:15:00,85.6,68.0,30.05,WNW,302,1.0,4.0,56,0.00,,,0.03,weatherlink.com 1.10,2013-08-23 20:15:00,
2013-08-23 16:31:00,85.4,69.0,30.05,SE,136,0.0,5.0,59,0.00,,,0.03,weatherlink.com 1.10,2013-08-23 20:31:00,
2013-08-23 16:45:00,85.0,69.0,30.04,West,264,0.0,5.0,59,0.00,,,0.03,weatherlink.com 1.10,2013-08-23 20:45:00,
2013-08-23 17:00:00,84.4,68.0,30.04,WNW,291,1.0,4.0,58,0.00,,,0.03,weatherlink.com 1.10,2013-08-23 21:00:00,
2013-08-23 17:15:00,84.7,68.0,30.04,WNW,288,1.0,6.0,57,0.00,,,0.03,weatherlink.com 1.10,2013-08-23 21:15:00,
2013-08-23 17:30:00,85.4,68.0,30.04,WNW,300,0.0,2.0,57,0.00,,,0.03,weatherlink.com 1.10,2013-08-23 21:30:00,
2013-08-23 17:45:00,85.9,69.0,30.04,West,270,1.0,4.0,58,0.00,,,0.03,weatherlink.com 1.10,2013-08-23 21:45:00,
2013-08-23 18:00:00,84.8,69.0,30.04,NNW,327,2.0,5.0,59,0.00,,,0.03,weatherlink.com 1.10,2013-08-23 22:00:00,
2013-08-23 18:15:00,84.6,69.0,30.04,WNW,299,2.0,6.0,59,0.00,,,0.03,weatherlink.com 1.10,2013-08-23 22:15:00,
2013-08-23 18:30:00,85.5,69.0,30.04,SSW,212,0.0,3.0,58,0.00,,,0.03,weatherlink.com 1.10,2013-08-23 22:30:00,
2013-08-23 18:45:00,86.0,68.0,30.04,NNE,15,0.0,4.0,55,0.00,,,0.03,weatherlink.com 1.10,2013-08-23 22:45:00,
2013-08-23 19:00:00,86.7,68.0,30.04,NNW,329,1.0,2.0,53,0.00,,,0.03,weatherlink.com 1.10,2013-08-23 23:00:00,
2013-08-23 19:15:00,84.9,69.0,30.05,SE,139,0.0,5.0,59,0.00,,,0.03,weatherlink.com 1.10,2013-08-23 23:15:00,
2013-08-23 19:30:00,84.7,70.0,30.05,NW,314,2.0,3.0,61,0.00,,,0.03,weatherlink.com 1.10,2013-08-23 23:30:00,
2013-08-23 19:45:00,82.9,68.0,30.06,NW,320,0.0,7.0,61,0.00,,,0.03,weatherlink.com 1.10,2013-08-23 23:45:00,
2013-08-23 20:00:00,81.7,68.0,30.06,NW,321,1.0,3.0,63,0.00,,,0.03,weatherlink.com 1.10,2013-08-24 00:00:00,
2013-08-23 20:15:00,80.5,68.0,30.07,NW,314,1.0,3.0,66,0.00,,,0.03,weatherlink.com 1.10,2013-08-24 00:15:00,
2013-08-23 20:30:00,79.6,67.0,30.07,NNW,348,2.0,3.0,66,0.00,,,0.03,weatherlink.com 1.10,2013-08-24 00:30:00,
2013-08-23 20:45:00,78.7,67.0,30.07,WNW,297,1.0,4.0,67,0.00,,,0.03,weatherlink.com 1.10,2013-08-24 00:45:00,
2013-08-23 21:00:00,78.1,67.0,30.08,NNW,327,1.0,5.0,68,0.00,,,0.03,weatherlink.com 1.10,2013-08-24 01:00:00,
2013-08-23 21:15:00,77.3,67.0,30.08,NW,318,0.0,2.0,70,0.00,,,0.03,weatherlink.com 1.10,2013-08-24 01:15:00,
2013-08-23 21:30:00,76.4,67.0,30.09,NW,314,1.0,3.0,72,0.00,,,0.03,weatherlink.com 1.10,2013-08-24 01:30:00,
2013-08-23 21:45:00,76.0,67.0,30.10,North,357,1.0,3.0,73,0.00,,,0.03,weatherlink.com 1.10,2013-08-24 01:45:00,
2013-08-23 22:00:00,75.6,67.0,30.10,NW,315,1.0,3.0,74,0.00,,,0.03,weatherlink.com 1.10,2013-08-24 02:00:00,
2013-08-23 22:15:00,75.4,67.0,30.11,North,6,3.0,5.0,74,0.00,,,0.03,weatherlink.com 1.10,2013-08-24 02:15:00,
2013-08-23 22:30:00,75.3,67.0,30.11,NW,325,4.0,5.0,74,0.00,,,0.03,weatherlink.com 1.10,2013-08-24 02:30:00,
2013-08-23 22:46:00,74.6,67.0,30.11,NW,309,3.0,5.0,76,0.00,,,0.03,weatherlink.com 1.10,2013-08-24 02:46:00,
2013-08-23 23:00:00,74.2,66.0,30.12,NW,326,1.0,4.0,76,0.00,,,0.03,weatherlink.com 1.10,2013-08-24 03:00:00,
2013-08-23 23:15:00,73.7,66.0,30.12,NNW,330,1.0,6.0,77,0.00,,,0.03,weatherlink.com 1.10,2013-08-24 03:15:00,
2013-08-23 23:30:00,73.6,66.0,30.13,NE,43,1.0,4.0,77,0.00,,,0.03,weatherlink.com 1.10,2013-08-24 03:30:00,
2013-08-23 23:45:00,73.9,66.0,30.13,NNW,329,0.0,3.0,75,0.00,,,0.03,weatherlink.com 1.10,2013-08-24 03:45:00,